Powrót do katalogu

INTELSAT 3-F4

AktywnyŁącznośćGEO
NORAD 3947·PAYLOAD· XX

Wystrzelony May 22, 1969 z Cape Canaveral Space Force Station

Loading…

TLE

ŚwieżeSource: Space-Track

Epoka: Sep 14, 2026, 12:35 UTC

1 03947U 69045A   26257.52469536 -.00000108  00000-0  00000-0 0  9999
2 03947   3.5088 288.6908 0021968  77.8672 281.8527  0.90044718 66764

Śledź INTELSAT 3-F4 w czasie rzeczywistym z AllMySat

Download on the App Store